History for KNYNEWYO343

Midtown West, New York, NY — Current Conditions
Daily Summary for October 24, 2017
  Current: High: Low: Average:
Temperature: 70.2°F 70.5°F 69.3°F 69.9°F
Dew Point: 66.6°F 67.1°F 66.2°F 66.6°F
Humidity: 88% 91% 88% 90%
Wind Speed: 0.0mph 4.2mph - 0.2mph
Wind Gust: 0.0mph 7.4mph - -
Wind: ESE - - WNW
Pressure: 29.83in 29.95in 29.80in -
Precipitation: 0.00in      
Solar Radiation: 0 watts/m^2      
UV Index: 0.0      
Statistics for the rest of the month
    High: Low: Average:
Temperature:   82.2°F 43.9°F 66.6°F
Dew Point:   75.2°F 25.3°F 54.7°F
Humidity:   97.0% 19.0% 68.8%
Wind Speed:   4.9mph from the East - 0.1mph
Wind Gust:   9.8mph from the SE - -
Wind:   - - SW
Pressure:   30.61in 29.76in -
Precipitation:   0.31in    
KNYNEWYO343 Weather Graph
Tabular Data for October 24, 2017
Time Temp. Dew Point Pressure Wind Gust Humidity Rainfall Solar Radiation
00:01 70.5°F 67.1°F 29.94in 0.0mph 89% 0.00in 0.00 watts/m^2
00:06 70.5°F 67.1°F 29.93in 0.0mph 89% 0.00in 0.00 watts/m^2
00:12 70.5°F 67.1°F 29.94in 0.0mph 89% 0.00in 0.00 watts/m^2
00:17 70.5°F 67.1°F 29.93in 0.0mph 89% 0.00in 0.00 watts/m^2
00:22 70.5°F 67.1°F 29.93in 0.0mph 89% 0.00in 0.00 watts/m^2
00:27 70.5°F 67.1°F 29.94in 0.0mph 89% 0.00in 0.00 watts/m^2
00:32 70.5°F 67.1°F 29.94in 0.0mph 89% 0.00in 0.00 watts/m^2
00:37 70.5°F 67.1°F 29.93in 0.0mph 89% 0.00in 0.00 watts/m^2
00:42 70.3°F 66.9°F 29.94in 0.0mph 89% 0.00in 0.00 watts/m^2
00:47 70.3°F 66.9°F 29.93in 0.0mph 89% 0.00in 0.00 watts/m^2
00:52 70.3°F 66.9°F 29.94in 0.0mph 89% 0.00in 0.00 watts/m^2
00:57 70.3°F 66.9°F 29.94in 4.9mph 89% 0.00in 0.00 watts/m^2
01:02 70.2°F 66.7°F 29.94in 0.0mph 89% 0.00in 0.00 watts/m^2
01:07 70.2°F 66.7°F 29.94in 2.5mph 89% 0.00in 0.00 watts/m^2
01:13 70.0°F 66.9°F 29.95in 0.0mph 90% 0.00in 0.00 watts/m^2
01:18 69.8°F 66.7°F 29.94in 2.5mph 90% 0.00in 0.00 watts/m^2
01:23 69.8°F 66.7°F 29.94in 0.0mph 90% 0.00in 0.00 watts/m^2
01:28 69.6°F 66.6°F 29.94in 0.0mph 90% 0.00in 0.00 watts/m^2
01:33 69.6°F 66.6°F 29.94in 0.0mph 90% 0.00in 0.00 watts/m^2
01:38 69.6°F 66.6°F 29.95in 0.0mph 90% 0.00in 0.00 watts/m^2
01:43 69.6°F 66.6°F 29.94in 0.0mph 90% 0.00in 0.00 watts/m^2
01:48 69.6°F 66.6°F 29.95in 2.5mph 90% 0.00in 0.00 watts/m^2
01:53 69.4°F 66.4°F 29.94in 0.0mph 90% 0.00in 0.00 watts/m^2
01:58 69.4°F 66.4°F 29.94in 0.0mph 90% 0.00in 0.00 watts/m^2
02:03 69.4°F 66.4°F 29.94in 0.0mph 90% 0.00in 0.00 watts/m^2
02:08 69.4°F 66.4°F 29.94in 0.0mph 90% 0.00in 0.00 watts/m^2
02:13 69.4°F 66.4°F 29.94in 0.0mph 90% 0.00in 0.00 watts/m^2
02:18 69.4°F 66.4°F 29.93in 0.0mph 90% 0.00in 0.00 watts/m^2
02:23 69.4°F 66.4°F 29.93in 0.0mph 90% 0.00in 0.00 watts/m^2
02:29 69.4°F 66.4°F 29.93in 0.0mph 90% 0.00in 0.00 watts/m^2
02:34 69.4°F 66.4°F 29.92in 0.0mph 90% 0.00in 0.00 watts/m^2
02:39 69.4°F 66.4°F 29.92in 0.0mph 90% 0.00in 0.00 watts/m^2
02:44 69.4°F 66.4°F 29.92in 0.0mph 90% 0.00in 0.00 watts/m^2
02:50 69.3°F 66.6°F 29.91in 4.9mph 91% 0.00in 0.00 watts/m^2
02:55 69.3°F 66.6°F 29.90in 0.0mph 91% 0.00in 0.00 watts/m^2
03:00 69.3°F 66.6°F 29.90in 0.0mph 91% 0.00in 0.00 watts/m^2
03:05 69.3°F 66.6°F 29.89in 0.0mph 91% 0.00in 0.00 watts/m^2
03:10 69.3°F 66.6°F 29.88in 0.0mph 91% 0.00in 0.00 watts/m^2
03:15 69.3°F 66.6°F 29.87in 0.0mph 91% 0.00in 0.00 watts/m^2
03:20 69.3°F 66.6°F 29.86in 0.0mph 91% 0.00in 0.00 watts/m^2
03:25 69.4°F 66.7°F 29.86in 0.0mph 91% 0.00in 0.00 watts/m^2
03:30 69.4°F 66.7°F 29.86in 0.0mph 91% 0.00in 0.00 watts/m^2
03:35 69.4°F 66.7°F 29.85in 0.0mph 91% 0.00in 0.00 watts/m^2
03:40 69.4°F 66.7°F 29.85in 2.5mph 91% 0.00in 0.00 watts/m^2
03:45 69.4°F 66.7°F 29.84in 0.0mph 91% 0.00in 0.00 watts/m^2
03:49 69.4°F 66.7°F 29.84in 2.5mph 91% 0.00in 0.00 watts/m^2
03:54 69.4°F 66.7°F 29.84in 0.0mph 91% 0.00in 0.00 watts/m^2
03:59 69.4°F 66.4°F 29.84in 0.0mph 90% 0.00in 0.00 watts/m^2
04:04 69.4°F 66.4°F 29.83in 0.0mph 90% 0.00in 0.00 watts/m^2
04:09 69.6°F 66.6°F 29.82in 0.0mph 90% 0.00in 0.00 watts/m^2
04:14 69.6°F 66.2°F 29.82in 0.0mph 89% 0.00in 0.00 watts/m^2
04:19 69.6°F 66.2°F 29.82in 0.0mph 89% 0.00in 0.00 watts/m^2
04:25 69.8°F 66.4°F 29.82in 0.0mph 89% 0.00in 0.00 watts/m^2
04:30 69.8°F 66.4°F 29.80in 0.0mph 89% 0.00in 0.00 watts/m^2
04:35 70.0°F 66.6°F 29.81in 0.0mph 89% 0.00in 0.00 watts/m^2
04:40 70.0°F 66.6°F 29.81in 0.0mph 89% 0.00in 0.00 watts/m^2
04:45 70.0°F 66.6°F 29.81in 0.0mph 89% 0.00in 0.00 watts/m^2
04:50 70.0°F 66.6°F 29.81in 4.9mph 89% 0.00in 0.00 watts/m^2
04:55 70.0°F 66.6°F 29.81in 0.0mph 89% 0.00in 0.00 watts/m^2
05:05 70.2°F 66.7°F 29.82in 0.0mph 89% 0.00in 0.00 watts/m^2
05:10 70.2°F 66.7°F 29.83in 0.0mph 89% 0.00in 0.00 watts/m^2
05:15 70.2°F 66.6°F 29.83in 0.0mph 88% 0.00in 0.00 watts/m^2
05:20 70.2°F 66.6°F 29.83in 0.0mph 88% 0.00in 0.00 watts/m^2
Comma Delimited File
Powered by Weather Underground, Inc.